Regional Weather Roundup
Issued by NWS Green Bay, WI

Home | Current Version | Previous Version | Graphics & Text | Print | Product List | Glossary Off
Versions: 1 2 3 4 5 6 7 8 9 10 11 12 13 14 15 16 17 18 19 20 21 22 23 24 25 26 27 28 29 30 31 32 33 34 35 36 37 38 39 40 41 42 43 44 45 46 47 48 49 50

000
ASUS43 KGRB 022311
RWRGRB

NORTH-CENTRAL AND NORTHEAST WISCONSIN REGIONAL WEATHER ROUNDUP
NATIONAL WEATHER SERVICE GREEN BAY WI
600 PM CDT TUE JUN 02 2015

WIZ005-009-010>012-018-019-030000-
NORTH CENTRAL WISCONSIN

CITY           SKY/WX    TMP DP  RH WIND       PRES   REMARKS
IRONWOOD       MOSUNNY   73  41  31 S8G18     29.93S
MANITOWISH WTR SUNNY     71  36  27 S14G20    30.00F
ARBOR VITAE    SUNNY     72  35  25 S15       30.01F
EAGLE RIVER    SUNNY     71  31  23 S8        30.02F
LAND O LAKES   SUNNY     73  31  21 S12       30.02F
RHINELANDER    SUNNY     71  36  27 S9        30.04F
PHILLIPS       PTSUNNY   69  44  41 S16       30.01S
ANTIGO         SUNNY     67  44  43 S10       30.05F
TOMAHAWK       SUNNY     69  40  35 S3        30.04S
MERRILL        SUNNY     71  37  28 SW10      30.04F
$$

WIZ013-073-030000-
NORTHEAST WISCONSIN

CITY           SKY/WX    TMP DP  RH WIND       PRES   REMARKS
IRON MOUNTAIN  SUNNY     71  42  35 SE10G20   30.04F
MARINETTE      MOSUNNY   66  39  37 S13       30.08S
OCONTO         MOSUNNY   67  42  39 SE9       30.08F
$$

WIZ017-030-035>037-045-030000-
CENTRAL WISCONSIN

CITY           SKY/WX    TMP DP  RH WIND       PRES   REMARKS
MEDFORD        SUNNY     67  43  41 S9        30.03F
WAUSAU         SUNNY     72  40  31 S10       30.02F
MOSINEE        SUNNY     70  39  32 S10       30.04F
MARSHFIELD     MOSUNNY   72  41  32 S13       30.03F
WISC RAPIDS    SUNNY     74  39  28 S10       30.04F
STEVENS POINT  SUNNY     71  41  33 S12       30.04F
WAUPACA        SUNNY     74  40  29 SE10      30.06F
SHAWANO        SUNNY     73  40  31 S6        30.06F
CLINTONVILLE   SUNNY     70  41  35 S10       30.06F
$$

WIZ038-039-048-051-030000-
FOX VALLEY

CITY           SKY/WX    TMP DP  RH WIND       PRES   REMARKS
NWS GREEN BAY  SUNNY     69  38  32 S14       30.08F
APPLETON       SUNNY     70  34  26 S10       30.09F
OSHKOSH        SUNNY     70  38  31 SE9       30.07F
FOND DU LAC    SUNNY     69  40  34 SE12      30.08F
$$

WIZ022-050-052-030000-
EAST CENTRAL WISCONSIN

CITY           SKY/WX    TMP DP  RH WIND       PRES   REMARKS
STURGEON BAY   MOSUNNY   64  37  36 S10       30.13S
MANITOWOC      SUNNY     62  38  40 S9        30.11F
SHEBOYGAN      SUNNY     62  42  47 S9        30.11F
$$

LMZ563-521-522-541>543-030000-
LAKESHORE

STATION/POSITION TIME  TEMP    WIND        PRES    VSBY  WAVE
                       AIR SEA DIR/SP/G                  HT/PER
                 (UTC) (F)     (DEG/KT/KT) (MB)    (MI)  (FT/S)
SHEBOYGAN LKSHOR 2300   55     170/ 12/ 12 1020.1F
KEWAUNEE LKSHORE 2200   52     180/  8/ 10 1019.2F
ALGOMA MARINA    2209          220/  9/ 10   N/A
NORTHPORT PIER   2200   60     140/  7/ 10 1019.6F
N MID LAKE BUOY  2250   44 38  190/  4/  6 1020.1F         0
SISTER BAY LKSHO 2218   66     180/ 12/ 16   N/A
CHAMBERS ISLAND  2200   67     150/  6/ 12 1019.3S
MENOMINEE LKSHOR 2200   64     160/ 13/ 15 1019.5F
$$


USA.gov is the U.S. government's official web portal to all federal, state and local government web resources and services.